Time,TemperatureF,DewpointF,PressureIn,WindDirection,WindDirectionDegrees,WindSpeedMPH,WindSpeedGustMPH,Humidity,HourlyPrecipIn,Conditions,Clouds,dailyrainin,SoftwareType,DateUTC
2017-10-16 00:07:00,50.6,47.0,30.33,WNW,296,0.0,0.0,88,0.00,,,0.00,weatherlink.com 1.10,2017-10-16 05:07:00,
2017-10-16 00:21:00,50.1,47.0,30.33,WNW,296,0.0,1.0,88,0.00,,,0.00,weatherlink.com 1.10,2017-10-16 05:21:00,
2017-10-16 00:37:00,49.7,47.0,30.33,WNW,296,1.0,2.0,89,0.00,,,0.00,weatherlink.com 1.10,2017-10-16 05:37:00,
2017-10-16 00:52:00,49.6,47.0,30.33,WNW,296,0.0,2.0,89,0.00,,,0.00,weatherlink.com 1.10,2017-10-16 05:52:00,
2017-10-16 01:07:00,49.6,47.0,30.33,WNW,296,0.0,1.0,90,0.00,,,0.00,weatherlink.com 1.10,2017-10-16 06:07:00,
2017-10-16 01:22:00,49.4,46.0,30.34,WNW,296,0.0,1.0,89,0.00,,,0.00,weatherlink.com 1.10,2017-10-16 06:22:00,
2017-10-16 01:37:00,50.1,47.0,30.34,WNW,296,0.0,2.0,88,0.00,,,0.00,weatherlink.com 1.10,2017-10-16 06:37:00,
2017-10-16 01:52:00,51.8,48.0,30.34,WNW,296,1.0,3.0,85,0.00,,,0.00,weatherlink.com 1.10,2017-10-16 06:52:00,
2017-10-16 02:07:00,52.0,47.0,30.34,WNW,296,0.0,4.0,84,0.00,,,0.00,weatherlink.com 1.10,2017-10-16 07:07:00,
2017-10-16 02:22:00,51.7,47.0,30.34,WNW,296,0.0,2.0,84,0.00,,,0.00,weatherlink.com 1.10,2017-10-16 07:22:00,
2017-10-16 02:37:00,51.5,47.0,30.34,WNW,296,0.0,3.0,84,0.00,,,0.00,weatherlink.com 1.10,2017-10-16 07:37:00,
2017-10-16 02:52:00,50.9,47.0,30.34,WNW,296,0.0,1.0,85,0.00,,,0.00,weatherlink.com 1.10,2017-10-16 07:52:00,
2017-10-16 03:07:00,50.4,46.0,30.34,WNW,296,0.0,1.0,85,0.00,,,0.00,weatherlink.com 1.10,2017-10-16 08:07:00,
2017-10-16 03:22:00,49.9,46.0,30.34,WNW,296,1.0,2.0,86,0.00,,,0.00,weatherlink.com 1.10,2017-10-16 08:22:00,
2017-10-16 03:37:00,50.4,46.0,30.34,WNW,296,1.0,3.0,86,0.00,,,0.00,weatherlink.com 1.10,2017-10-16 08:37:00,
2017-10-16 03:52:00,50.3,46.0,30.34,WNW,296,1.0,2.0,86,0.00,,,0.00,weatherlink.com 1.10,2017-10-16 08:52:00,
2017-10-16 04:07:00,50.1,46.0,30.34,WNW,296,0.0,3.0,86,0.00,,,0.00,weatherlink.com 1.10,2017-10-16 09:07:00,
2017-10-16 04:22:00,49.8,46.0,30.34,WNW,296,2.0,3.0,86,0.00,,,0.00,weatherlink.com 1.10,2017-10-16 09:22:00,
2017-10-16 04:37:00,49.7,46.0,30.34,WNW,296,0.0,3.0,86,0.00,,,0.00,weatherlink.com 1.10,2017-10-16 09:37:00,
2017-10-16 04:52:00,49.5,46.0,30.34,WNW,296,1.0,3.0,87,0.00,,,0.00,weatherlink.com 1.10,2017-10-16 09:52:00,
2017-10-16 05:07:00,49.0,46.0,30.35,WNW,296,0.0,2.0,88,0.00,,,0.00,weatherlink.com 1.10,2017-10-16 10:07:00,
2017-10-16 05:22:00,48.7,46.0,30.36,WNW,296,2.0,3.0,89,0.00,,,0.00,weatherlink.com 1.10,2017-10-16 10:22:00,
2017-10-16 05:37:00,48.4,45.0,30.36,WNW,296,2.0,4.0,89,0.00,,,0.00,weatherlink.com 1.10,2017-10-16 10:37:00,
2017-10-16 05:52:00,48.2,45.0,30.36,WNW,296,1.0,3.0,89,0.00,,,0.00,weatherlink.com 1.10,2017-10-16 10:52:00,
2017-10-16 06:07:00,48.1,45.0,30.37,WNW,296,0.0,3.0,89,0.00,,,0.00,weatherlink.com 1.10,2017-10-16 11:07:00,
2017-10-16 06:22:00,47.9,45.0,30.37,WNW,296,0.0,3.0,89,0.00,,,0.00,weatherlink.com 1.10,2017-10-16 11:22:00,
2017-10-16 06:37:00,47.9,45.0,30.38,WNW,296,2.0,3.0,90,0.00,,,0.00,weatherlink.com 1.10,2017-10-16 11:37:00,
2017-10-16 06:52:00,47.8,45.0,30.38,WNW,296,1.0,3.0,90,0.00,,,0.00,weatherlink.com 1.10,2017-10-16 11:52:00,
2017-10-16 07:07:00,47.7,45.0,30.38,WNW,296,1.0,3.0,90,0.00,,,0.00,weatherlink.com 1.10,2017-10-16 12:07:00,
2017-10-16 07:22:00,47.7,45.0,30.38,WNW,296,0.0,3.0,89,0.00,,,0.00,weatherlink.com 1.10,2017-10-16 12:22:00,
2017-10-16 07:37:00,47.5,45.0,30.39,WNW,296,1.0,2.0,90,0.00,,,0.00,weatherlink.com 1.10,2017-10-16 12:37:00,
2017-10-16 07:52:00,47.6,45.0,30.39,WNW,296,1.0,3.0,90,0.00,,,0.00,weatherlink.com 1.10,2017-10-16 12:52:00,
2017-10-16 08:07:00,48.1,45.0,30.39,WNW,296,0.0,3.0,89,0.00,,,0.00,weatherlink.com 1.10,2017-10-16 13:07:00,
2017-10-16 08:22:00,49.0,45.0,30.39,WNW,296,0.0,3.0,87,0.00,,,0.00,weatherlink.com 1.10,2017-10-16 13:22:00,
2017-10-16 08:37:00,49.5,46.0,30.40,WNW,296,2.0,3.0,86,0.00,,,0.00,weatherlink.com 1.10,2017-10-16 13:37:00,
2017-10-16 08:52:00,50.5,46.0,30.41,WNW,296,0.0,3.0,85,0.00,,,0.00,weatherlink.com 1.10,2017-10-16 13:52:00,
2017-10-16 09:07:00,51.9,46.0,30.41,WNW,296,0.0,2.0,81,0.00,,,0.00,weatherlink.com 1.10,2017-10-16 14:07:00,
2017-10-16 09:23:00,53.3,47.0,30.42,WNW,296,0.0,1.0,79,0.00,,,0.00,weatherlink.com 1.10,2017-10-16 14:23:00,
2017-10-16 09:38:00,54.4,47.0,30.42,SW,231,0.0,2.0,77,0.00,,,0.00,weatherlink.com 1.10,2017-10-16 14:38:00,
2017-10-16 09:53:00,56.0,47.0,30.42,SW,225,2.0,4.0,72,0.00,,,0.00,weatherlink.com 1.10,2017-10-16 14:53:00,
2017-10-16 10:08:00,57.2,48.0,30.42,East,92,0.0,5.0,71,0.00,,,0.00,weatherlink.com 1.10,2017-10-16 15:08:00,
2017-10-16 10:23:00,58.8,47.0,30.42,ENE,76,3.0,8.0,64,0.00,,,0.00,weatherlink.com 1.10,2017-10-16 15:23:00,
2017-10-16 10:38:00,60.7,46.0,30.42,ENE,71,3.0,9.0,59,0.00,,,0.00,weatherlink.com 1.10,2017-10-16 15:38:00,
2017-10-16 10:53:00,61.8,46.0,30.42,ENE,66,0.0,8.0,57,0.00,,,0.00,weatherlink.com 1.10,2017-10-16 15:53:00,
2017-10-16 11:08:00,62.5,45.0,30.42,ENE,73,1.0,8.0,54,0.00,,,0.00,weatherlink.com 1.10,2017-10-16 16:08:00,
2017-10-16 11:23:00,63.1,46.0,30.42,ENE,60,0.0,7.0,55,0.00,,,0.00,weatherlink.com 1.10,2017-10-16 16:23:00,
2017-10-16 11:38:00,63.6,46.0,30.41,ENE,58,1.0,9.0,53,0.00,,,0.00,weatherlink.com 1.10,2017-10-16 16:38:00,
2017-10-16 11:53:00,64.3,46.0,30.41,ENE,60,0.0,6.0,52,0.00,,,0.00,weatherlink.com 1.10,2017-10-16 16:53:00,
2017-10-16 12:09:00,65.1,46.0,30.41,ENE,62,0.0,8.0,50,0.00,,,0.00,weatherlink.com 1.10,2017-10-16 17:09:00,
2017-10-16 12:23:00,65.5,46.0,30.40,ENE,64,5.0,8.0,49,0.00,,,0.00,weatherlink.com 1.10,2017-10-16 17:23:00,
2017-10-16 12:39:00,66.1,46.0,30.39,NE,53,0.0,10.0,49,0.00,,,0.00,weatherlink.com 1.10,2017-10-16 17:39:00,
2017-10-16 12:53:00,67.3,46.0,30.38,NW,304,2.0,6.0,47,0.00,,,0.00,weatherlink.com 1.10,2017-10-16 17:53:00,
2017-10-16 13:08:00,67.6,47.0,30.37,NNW,330,0.0,4.0,48,0.00,,,0.00,weatherlink.com 1.10,2017-10-16 18:08:00,
2017-10-16 13:23:00,67.2,45.0,30.36,ENE,67,0.0,9.0,45,0.00,,,0.00,weatherlink.com 1.10,2017-10-16 18:23:00,
2017-10-16 13:38:00,67.7,45.0,30.35,ENE,61,2.0,8.0,45,0.00,,,0.00,weatherlink.com 1.10,2017-10-16 18:38:00,
2017-10-16 13:53:00,69.0,45.0,30.33,ENE,71,8.0,10.0,43,0.00,,,0.00,weatherlink.com 1.10,2017-10-16 18:53:00,
2017-10-16 14:09:00,69.5,47.0,30.33,ENE,57,4.0,5.0,45,0.00,,,0.00,weatherlink.com 1.10,2017-10-16 19:09:00,
2017-10-16 14:24:00,70.4,44.0,30.32,ENE,71,0.0,1.0,39,0.00,,,0.00,weatherlink.com 1.10,2017-10-16 19:24:00,
2017-10-16 14:39:00,71.2,43.0,30.31,ENE,74,0.0,1.0,37,0.00,,,0.00,weatherlink.com 1.10,2017-10-16 19:39:00,
2017-10-16 14:54:00,70.4,43.0,30.30,ENE,69,3.0,10.0,37,0.00,,,0.00,weatherlink.com 1.10,2017-10-16 19:54:00,
2017-10-16 15:09:00,70.5,43.0,30.29,ENE,62,0.0,1.0,37,0.00,,,0.00,weatherlink.com 1.10,2017-10-16 20:09:00,
2017-10-16 15:24:00,70.9,43.0,30.29,ENE,74,0.0,7.0,37,0.00,,,0.00,weatherlink.com 1.10,2017-10-16 20:24:00,
2017-10-16 15:39:00,71.7,43.0,30.29,ENE,74,3.0,5.0,35,0.00,,,0.00,weatherlink.com 1.10,2017-10-16 20:39:00,
2017-10-16 15:54:00,71.3,42.0,30.28,ENE,59,0.0,2.0,35,0.00,,,0.00,weatherlink.com 1.10,2017-10-16 20:54:00,
2017-10-16 16:09:00,71.3,42.0,30.28,NE,52,0.0,6.0,35,0.00,,,0.00,weatherlink.com 1.10,2017-10-16 21:09:00,
2017-10-16 16:24:00,72.1,43.0,30.28,NE,52,0.0,1.0,35,0.00,,,0.00,weatherlink.com 1.10,2017-10-16 21:24:00,
2017-10-16 16:39:00,71.1,43.0,30.27,NE,54,0.0,5.0,37,0.00,,,0.00,weatherlink.com 1.10,2017-10-16 21:39:00,
2017-10-16 16:54:00,70.6,42.0,30.27,NE,54,0.0,4.0,36,0.00,,,0.00,weatherlink.com 1.10,2017-10-16 21:54:00,
2017-10-16 17:09:00,70.7,43.0,30.27,NE,55,0.0,1.0,37,0.00,,,0.00,weatherlink.com 1.10,2017-10-16 22:09:00,
2017-10-16 17:24:00,70.3,43.0,30.27,NE,55,0.0,2.0,37,0.00,,,0.00,weatherlink.com 1.10,2017-10-16 22:24:00,
2017-10-16 17:39:00,69.4,43.0,30.27,NE,55,0.0,3.0,38,0.00,,,0.00,weatherlink.com 1.10,2017-10-16 22:39:00,
2017-10-16 17:54:00,68.7,43.0,30.27,NE,55,0.0,1.0,40,0.00,,,0.00,weatherlink.com 1.10,2017-10-16 22:54:00,
2017-10-16 18:09:00,67.4,44.0,30.27,NE,55,0.0,0.0,43,0.00,,,0.00,weatherlink.com 1.10,2017-10-16 23:09:00,
2017-10-16 18:27:00,66.1,43.0,30.27,NE,55,0.0,0.0,44,0.00,,,0.00,weatherlink.com 1.10,2017-10-16 23:27:00,
2017-10-16 18:44:00,64.5,44.0,30.27,NE,55,0.0,0.0,48,0.00,,,0.00,weatherlink.com 1.10,2017-10-16 23:44:00,
2017-10-16 19:00:00,62.3,46.0,30.27,NE,55,0.0,0.0,55,0.00,,,0.00,weatherlink.com 1.10,2017-10-17 00:00:00,
2017-10-16 19:16:00,60.2,46.0,30.27,NE,55,0.0,0.0,60,0.00,,,0.00,weatherlink.com 1.10,2017-10-17 00:16:00,
2017-10-16 19:30:00,58.3,46.0,30.28,NE,55,0.0,0.0,63,0.00,,,0.00,weatherlink.com 1.10,2017-10-17 00:30:00,
2017-10-16 19:39:00,56.8,46.0,30.28,NE,55,0.0,0.0,67,0.00,,,0.00,weatherlink.com 1.10,2017-10-17 00:39:00,
2017-10-16 19:54:00,55.4,45.0,30.29,NE,55,0.0,0.0,69,0.00,,,0.00,weatherlink.com 1.10,2017-10-17 00:54:00,